Location: Unspecified
(0.0000°N, 0.0000°E)
Time: 23:10:58
(UTC+02:00)

Daily predictions for brighter satellites

Satellite Brightness Start Highest point End
(mag) Time Altitude Azimuth Time Altitude Azimuth Time Altitude Azimuth
ARIANE 5 R/B 4.0 19:52:57 10° WNW 19:58:08 70° NNE 21:00:50 10° E
ARIANE 5 R/B 4.0 19:52:58 10° WNW 19:58:09 70° NNE 21:00:49 10° E
Atlas 2A Centaur Rocket 4.4 20:06:49 10° W 20:11:17 41° S 20:30:51 10° SE
Cosmos 2173 Rocket 4.1 20:11:56 10° N 20:17:59 58° E 20:24:09 10° SSE
Cosmos 2056 Rocket 4.0 20:15:35 10° NNW 20:20:39 65° WSW 20:25:42 10° S
Cosmos 1536 3.7 20:20:11 10° NNW 20:24:08 56° W 20:28:06 10° S
ERBS 2.4 20:20:49 10° NNW 20:24:15 67° ENE 20:27:44 10° SE
Cosmos 2061 Rocket 4.1 20:21:02 10° N 20:27:26 75° E 20:33:52 10° S
Cosmos 494 Rocket 4.0 20:22:49 10° S 20:27:53 60° ESE 20:32:53 10° NNE
Cosmos 1455 Rocket 3.1 20:23:54 10° N 20:28:17 68° E 20:32:40 10° S
SJ-6B 3.3 20:28:13 10° SE 20:31:40 36° ENE 20:35:08 10° N
SL-16 R/B 3.0 20:30:55 10° SSW 20:36:28 58° WNW 20:42:01 10° N
Cosmos 2278 Rocket 4.0 20:36:07 10° NE 20:38:03 12° ENE 20:39:49 10° E
Cosmos 44 3.8 20:33:47 10° NNW 20:38:34 59° WSW 20:43:04 10° S
Cosmos 1812 4.4 20:35:25 10° SSW 20:39:00 37° W 20:42:35 10° NNW
BREEZE-M DEB (TANK) 4.4 20:37:31 10° NW 20:41:41 84° SW 20:57:33 10° SE
ARIANE 3 DEB 2.8 20:39:56 10° WSW 20:41:58 30° S 20:43:43 16° SE
ATLAS 3B R/B 3.6 20:35:55 10° S 20:42:15 30° ESE 20:48:42 10° NE
Cosmos 1802 Rocket 4.0 20:36:50 10° N 20:42:58 88° E 20:49:12 10° S
SEDSat Delta rocket 3.6 20:39:25 10° SW 20:43:51 45° SE 20:48:54 10° ENE
Ariane H10-3 4.4 20:30:03 10° W 20:47:06 51° N 20:50:44 10° ENE
ARIANE R/B 4.3 20:50:56 10° WNW 20:54:14 37° N 20:59:29 11° ENE
Hubble Space Telescope 3.1 20:53:53 10° N 20:55:47 13° NNE 20:57:41 10° NE
Cosmos 1025 Rocket 3.0 20:52:16 10° S 20:56:40 86° E 21:01:04 10° N
GPS 2-14 Rocket1 2.6 20:54:15 10° WSW 20:58:13 84° NNW 21:01:10 17° ENE
FREGAT/IRIS 2.7 20:56:44 18° SSE 20:58:54 57° E 21:01:59 10° N
Cosmos 1484 Rocket 2.9 20:55:36 10° S 20:59:18 69° W 21:02:59 10° NNW
MSX 3.9 20:54:47 10° S 21:00:32 79° WSW 21:06:16 10° NNW
CZ-2C R/B 4.3 20:56:16 10° SSW 21:00:48 31° WSW 21:05:16 10° NW
NOAA 12 4.1 20:57:46 10° SSE 21:02:57 62° ENE 21:08:06 10° N
Cosmos 1603 3.6 21:00:12 10° SSW 21:05:52 82° ESE 21:11:29 10° NNE
IDEFIX/ARIANE 42P 4.3 21:08:01 10° SSW 21:12:31 31° WSW 21:17:03 10° NW
Meteor 1-23 Rocket 4.1 21:07:03 10° S 21:12:37 70° E 21:18:13 10° NNE
BLOCK DM-SL R/B 2.9 21:10:48 10° W 21:13:37 89° SSE 21:19:40 22° E
Helios 1A 3.4 21:11:02 10° S 21:15:09 61° WSW 21:19:18 10° NNW
Cosmos 1892 Rocket 3.6 21:11:59 10° S 21:16:23 82° W 21:20:48 10° N
SL-24 R/B 4.2 21:13:13 11° S 21:17:14 74° WSW 21:21:30 10° NNW
Tiangong 1 0.8 21:14:49 10° NW 21:17:57 90° NNW 21:18:09 77° SE
Cosmos 1975 3.0 21:16:54 10° N 21:20:51 70° W 21:23:44 18° S
ATLAS 3B CENTAUR R/B 3.6 21:17:38 10° NNW 21:21:26 28° NE 21:24:18 22° ENE
Resurs 01 Rocket 1.7 21:18:09 16° S 21:21:38 78° WSW 21:26:04 10° NNW
Cosmos 1500 3.4 21:19:47 10° N 21:23:19 50° ENE 21:23:19 50° ENE
Cosmos 1725 Rocket 4.1 21:17:23 10° N 21:23:34 77° W 21:29:46 10° S
ALOS 4.1 21:25:44 17° NE 21:25:44 17° NE 21:27:25 10° NNE
Meteor 2-4 Rocket 3.8 21:19:04 10° S 21:24:47 84° W 21:30:38 10° N
Resurs 1-3 3.4 21:23:48 35° SSE 21:25:36 79° E 21:29:58 10° N
FengYun 1-2 T 4.4 21:25:24 38° SE 21:27:03 50° ENE 21:32:19 10° N
Cosmos 1943 3.4 21:22:13 10° S 21:27:31 43° ESE 21:32:49 10° NE
COSMOS 2455 3.5 21:27:16 10° SSW 21:33:06 55° WNW 21:38:57 10° N
Spot 2 Rocket 4.1 21:30:01 12° S 21:34:40 53° WSW 21:39:34 10° NNW
Cosmos 1844 Rocket 3.1 21:29:18 10° NNW 21:34:48 60° WSW 21:38:27 21° S
Tsikada Rocket 4.4 21:36:10 41° E 21:36:10 41° E 21:42:00 10° NNE
Cosmos 1844 4.1 21:43:39 10° NNW 21:49:21 63° WSW 21:51:36 37° S
Cosmos 2233 Rocket 4.4 21:54:56 10° NNW 22:00:58 60° W 22:03:58 30° SSW
Ariane H10 4.3 21:58:47 10° WNW 21:59:37 21° WNW 21:59:37 21° WNW
Cosmos 2278 Rocket 3.0 22:16:29 10° NNW 22:21:43 45° W 22:21:43 45° W
ATLAS 3B R/B 4.3 22:26:01 10° SW 22:32:44 35° WNW 22:39:33 10° N
Hubble Space Telescope 3.9 22:32:58 10° NW 22:33:27 13° NW 22:33:27 13° NW
H-2A R/B 3.6 22:32:33 10° WSW 22:41:13 36° W 22:41:13 36° W
Ariane H10 4.3 22:39:39 10° WNW 22:44:39 58° N 23:22:22 10° E
Ariane H10 4.3 22:39:39 10° WNW 22:44:40 58° N 23:22:22 10° E
